Location: Ahstedt
(52.2048°N, 10.1060°E)
Time: 18:58:18
(UTC+00:00)

Cosmos 2082 Rocket - Pass Details

Date: 19 April 2026
Orbit: 831 x 853 km, 71.0° (Epoch: 13 May)

Event Time Altitude Azimuth Distance (km) Brightness Sun altitude
Exits shadow 03:25:24 - 269° (W) 2,887 4.4 -7.6°
Reaches altitude 10° 03:26:47 10° 277° (W) 2,488 4.2 -7.4°
Maximum altitude 03:31:07 22° 327° (NNW) 1,805 3.9 -6.9°
Drops below altitude 10° 03:35:28 10° 17° (NNE) 2,495 5.4 -6.3°
Sets 03:38:33 0° 32° (NNE) 3,433 6.5 -5.8°
